Zurück zum Katalog

TEMPSAT 2

AktivWissenschaftLEO
NORAD 4168·PAYLOAD·🇺🇸 United States

Gestartet Sep 30, 1969 von Vandenberg Space Force Base

Loading…

Nächste Überflüge (nächste 24 Stunden)

TLE

AktuellSource: Space-Track

Epoche: Sep 14, 2026, 11:42 UTC

1 04168U 69082H   26257.48814021 -.00000012  00000-0  29559-4 0  9992
2 04168  70.0119 267.2146 0019774   1.5526 358.5638 13.96025051900553

Verfolge TEMPSAT 2 in Echtzeit mit AllMySat

Download on the App Store